Weather History for KPHX - July, 2013

Change the Weather History Date:

Wednesday, July 3, 2013

  Actual Average Record
Temperature  
Mean Temperature 99 °F 94 °F  
Max Temperature 111 °F 107 °F 117 °F (1907)
Min Temperature 87 °F 82 °F 64 °F (1916)
Degree Days  
Heating Degree Days 0 0  
Month to date heating degree days 0 0  
Since 1 June heating degree days 0 0  
Since 1 July heating degree days 0 0  
Cooling Degree Days 34 29  
Month to date cooling degree days 102 87  
Year to date cooling degree days 2102 1747  
Since 1 June cooling degree days 1004 861  
Growing Degree Days 49 (Base 50)    
Moisture  
Dew Point 51 °F    
Average Humidity 23    
Maximum Humidity 34    
Minimum Humidity 12    
Precipitation  
Precipitation 0.00 in 0.02 in 0.22 in (1927)
Month to date precipitation T 0.05  
Year to date precipitation 2.61 3.28  
Snow  
Snow 0.00 in - - ()
Month to date snowfall 0.0  
Year to date snowfall 0.0  
Since 1 July snowfall 0.0  
Snow Depth 0.00 in    
Sea Level Pressure  
Sea Level Pressure 29.68 in    
Wind  
Wind Speed 10 mph (SSE)    
Max Wind Speed 22 mph    
Max Gust Speed 26 mph    
Visibility 10 miles    
Events      
T = Trace of Precipitation, MM = Missing Value Source: NWS Daily Summary

Daily Weather History Graph

Daily Weather History Graph

Search for Another Location

Airport or City:

Trip Planner

Search our weather history database for the weather conditions in past years. The results will help you decide how hot, cold, wet, or windy it might be!

Date:

Astronomy

Jul. 03, 2013 Rise Set
Actual Time 5:22 AM MST 7:41 PM MST
Civil Twilight 4:54 AM MST 8:10 PM MST
Nautical Twilight 4:18 AM MST 8:45 PM MST
Astronomical Twilight 3:40 AM MST 9:23 PM MST
Moon 1:57 AM MST (7/3) 3:59 PM MST (7/3)
Length of Visible Light 15h 16m
Length of Day
14h 18m
Waning Crescent, 17% of the Moon is Illuminated
Jul 3
Waning Crescent
Jul 8
New
Jul 15
First Quarter
Jul 22
Full
Jul 29
Last Quarter

Hourly Weather History & Observations

Time (MST) Temp. Heat Index Dew Point Humidity Pressure Visibility Wind Dir Wind Speed Gust Speed Precip Events Conditions
12:51 AM 91.0 °F 88.9 °F 55.0 °F 29% 29.75 in 10.0 mi SE 11.5 mph 23.0 mph N/A   Overcast
1:51 AM 90.0 °F 87.9 °F 55.0 °F 30% 29.75 in 10.0 mi ESE 15.0 mph - N/A   Mostly Cloudy
2:51 AM 90.0 °F 87.5 °F 53.1 °F 28% 29.75 in 10.0 mi East 10.4 mph - N/A   Mostly Cloudy
3:51 AM 89.1 °F 86.9 °F 54.0 °F 30% 29.75 in 10.0 mi SE 9.2 mph - N/A   Mostly Cloudy
4:51 AM 88.0 °F 85.9 °F 54.0 °F 31% 29.74 in 10.0 mi ESE 6.9 mph - N/A   Partly Cloudy
5:51 AM 87.1 °F 85.3 °F 55.0 °F 33% 29.75 in 10.0 mi ESE 11.5 mph - N/A   Scattered Clouds
6:51 AM 89.1 °F 87.1 °F 55.0 °F 31% 29.78 in 10.0 mi ESE 9.2 mph - N/A   Partly Cloudy
7:51 AM 90.0 °F 87.9 °F 55.0 °F 30% 29.80 in 10.0 mi East 10.4 mph - N/A   Scattered Clouds
8:51 AM 93.9 °F 91.7 °F 54.0 °F 26% 29.78 in 10.0 mi SE 10.4 mph - N/A   Partly Cloudy
9:51 AM 98.1 °F 96.1 °F 54.0 °F 23% 29.77 in 10.0 mi SSE 11.5 mph - N/A   Partly Cloudy
10:51 AM 100.0 °F 97.9 °F 53.1 °F 21% 29.76 in 10.0 mi SSE 10.4 mph - N/A   Scattered Clouds
11:51 AM 102.9 °F 100.9 °F 53.1 °F 19% 29.74 in 10.0 mi ESE 9.2 mph - N/A   Scattered Clouds
12:51 PM 106.0 °F - 52.0 °F 17% 29.71 in 10.0 mi SSE 9.2 mph - N/A   Scattered Clouds
1:51 PM 106.0 °F - 51.1 °F 16% 29.68 in 10.0 mi Variable 3.5 mph - N/A   Scattered Clouds
2:51 PM 108.0 °F - 50.0 °F 15% 29.64 in 10.0 mi Variable 4.6 mph - N/A   Scattered Clouds
3:51 PM 109.9 °F - 46.9 °F 12% 29.60 in 10.0 mi NW 10.4 mph - N/A   Scattered Clouds
4:51 PM 111.0 °F - 46.0 °F 11% 29.57 in 10.0 mi WNW 19.6 mph 25.3 mph N/A   Mostly Cloudy
5:51 PM 109.0 °F - 48.0 °F 13% 29.56 in 10.0 mi West 12.7 mph 23.0 mph N/A   Overcast
6:51 PM 108.0 °F - 46.9 °F 13% 29.55 in 10.0 mi West 12.7 mph - N/A   Overcast
7:51 PM 107.1 °F - 46.9 °F 13% 29.57 in 10.0 mi WSW 5.8 mph - N/A   Mostly Cloudy
8:51 PM 105.1 °F - 48.0 °F 15% 29.57 in 10.0 mi West 6.9 mph - N/A   Mostly Cloudy
9:51 PM 104.0 °F - 48.0 °F 15% 29.59 in 10.0 mi NW 8.1 mph - N/A   Scattered Clouds
10:51 PM 102.0 °F - 50.0 °F 17% 29.59 in 10.0 mi West 9.2 mph - N/A   Partly Cloudy
11:51 PM 100.9 °F - 50.0 °F 18% 29.59 in 10.0 mi West 10.4 mph - N/A   Partly Cloudy